Location: Alincthun
(50.7310°N, 1.8022°E)
Time: 07:38:58
(UTC+00:00)

Cosmos 1459 Rocket - Pass Details

Date: 17 February 2020
Orbit: 938 x 999 km, 83.0° (Epoch: 30 March)

Event Time Altitude Azimuth Distance (km) Brightness Sun altitude
Rises 05:11:03 0° 350° (N) 3,635 6.9 -18.2°
Reaches altitude 10° 05:13:32 10° 351° (N) 2,692 6.2 -17.8°
Maximum altitude 05:19:43 85° 80° (E) 975 4.0 -16.8°
Drops below altitude 10° 05:25:57 10° 170° (S) 2,716 6.5 -15.8°
Sets 05:28:28 0° 171° (S) 3,668 7.1 -15.4°
